STARLINK-32421, 61628

Orbit data source: Space-Track

STARLINK-32421, 61628 is a payload satellite owned by SpaceX/Seattle (US) in LEO that was launched on Wed, 23 Oct 2024 UTC via an FALCON 9 launch vehicle from the Air Force Eastern Test Range (AFETR). Payload-class satellites include a variety of spacecraft equipped with specific instruments for various scientific and technological missions. These include communications satellites like Starlink; space stations such as the ISS; scientific satellites like the Hubble; Earth observation satellites from companies like Planet Labs, Umbra, and HawkEye 360; GPS; miniature CubeSats for education and research; and military/defense satellites.

Loading next visibility...
Identifier
61628, 2024-191H
Orbit
LEO
Country
Flag of USUS
Related business
Manufacturer
SpaceX/Seattle
Mission
Operational Commercial Communications
Bus & Motor
STARLINK V2M, Unknown motor
Mass
730 kg wet, ~700 kg dry
Launch date (UTC)
2024-10-23 (11 months ago)
Launch vehicle
FALCON 9
Launch site
Air Force Eastern Test Range (AFETR)
Object type
Payload
Rocket body
Debris
Shape & HBR
Box + 2 Pan, 14.5 m
Radar Cross Section
36.964 m², Large (>1 m²)

Expand to show TLE details & history
Last TLE update: 19 hours ago

TLE from 19 hours ago
0 STARLINK-32421
1 61628U 24191H   25260.47146357  .00000232  00000-0  17940-4 0  9994
2 61628  43.0021  52.8565 0000924 260.1499  99.9248 15.27566235 51045
Epoch: 2025-09-17T11:18Z
TLE epoch observation values (Epoch: 2025-09-17T11:18:54.452Z)
Latitude
-0.00004°
Longitude
-113.51736°
Altitude
482.975 km
Speed
7.626 km/s
True Right ascension
03h 31m 25s
True Declination
0° 00' 00"
Sunlit
Object was in full shadow at epoch
Visualization orbit readout
Latitude
Unknown
Longitude
Unknown
Altitude
Unknown
Speed
Unknown
Apparent Right ascension
Unknown
Apparent Declination
Unknown
Sunlit
N/A
Visualization observer readout
Local Sidereal Time
22:39:22
Azimuth
Unknown
Elevation
Unknown
Doppler factor
Unknown
Orbital elements
Apogee altitude
485.669 km
Perigee altitude
484.401 km
Semi-major axis
6,863.172 km
Eccentricity
0.00009
Inclination
43.0021°
RAAN
52.8565°
Arg. of periapsis
260.1499°
True anomaly
99.93523°
Mean anomaly
99.9248°
Eccentric anomaly
99.93001°
Mean motion
3.8173 °/min
Orbital period
94.31 mins
BSTAR
0.00001794
Loading maneuver chart data...
Computing Atmospheric mass density...
Loading historical data...
Loading historical data...
Loading historical data...
Loading historical data...
Loading historical data...
Loading historical data...
Loading historical data...

Documentation

Showing up to 5 results
|